Location: Eschentzwiller
(47.7125°N, 7.3981°E)
Time: 00:47:42
(UTC+00:00)

ARGOS - Pass Details

Date: 27 October 2020
Orbit: 820 x 835 km, 98.4° (Epoch: 26 November)

Event Time Altitude Azimuth Distance (km) Brightness Sun altitude
Exits shadow 17:13:09 - 106° (ESE) 2,560 5.2 -9.5°
Reaches altitude 10° 17:13:33 10° 104° (ESE) 2,446 5.0 -9.5°
Maximum altitude 17:17:24 20° 58° (ENE) 1,832 4.4 -10.2°
Drops below altitude 10° 17:21:16 10° 12° (NNE) 2,458 5.4 -10.8°
Sets 17:24:11 0° 357° (N) 3,397 6.3 -11.3°
